[[{"header":{"parameterUnit":"m.s-1","parameterCategory":1,"la1":30.2991,"la2":30.254,"lo1":-89.0895,"lo2":-89.0444,"dx":0.0017,"dy":0.0017,"nx":28,"ny":28,"refTime":"2023-01-14T03:00:00:Z","depth":0,"parameterNumber":2,"parameterNumberName":"U-component_of_WINDS"},"data":[0,0,0,0,0,0,0,0,0,0,0,0,0,0,0,0,0,0,0,0,0,0,0,0,0,0,0,0,0,0,0,0,0,0,0,0,0,0,0,0,0,0,0,0,0,0,0,0,0,0,0,0,0,0,0,0,0,0,-4.3318,-4.3319,0,-4.3382,-4.3383,-4.3383,-4.3296,-4.3293,-4.329,-4.3287,-4.335,-4.3354,-4.3358,0,0,0,0,0,0,0,0,0,0,0,0,0,-4.3118,-4.3122,-4.3318,-4.3319,-4.332,-4.3382,-4.3383,-4.3383,-4.3297,-4.3293,-4.3289,-4.3286,-4.3348,-4.3353,-4.3359,0,0,0,0,0,0,0,0,0,0,0,0,0,-4.3195,-4.3123,-4.3318,-4.3284,-4.3282,-4.3382,-4.3383,-4.3384,-4.3298,-4.3293,-4.3288,-4.3284,-4.3346,-4.3353,-4.336,-4.3495,0,0,-4.338,-4.3383,0,0,0,0,0,0,0,0,-4.3191,-4.3203,-4.3288,-4.3287,-4.3284,-4.3326,-4.3334,-4.3421,-4.3299,-4.3292,-4.3287,-4.3282,-4.3345,-4.3352,-4.3374,-4.3498,-4.35,-4.3381,-4.3385,-4.3388,-4.339,0,0,0,0,0,0,0,-4.3186,-4.3199,-4.3343,-4.329,-4.3287,-4.3264,-4.327,-4.335,-4.3344,-4.3292,-4.3286,-4.3295,-4.3343,-4.3368,-4.3375,-4.3501,-4.3381,-4.3387,-4.3391,-4.3394,-4.3735,-4.374,0,0,0,0,0,0,-4.3185,-4.3196,-4.3341,-4.3345,-4.3225,-4.3272,-4.3278,-4.3318,-4.3343,-4.3342,-4.3299,-4.329,-4.3358,-4.3367,-4.3377,-4.3534,-4.3388,-4.3394,-4.3398,-4.373,-4.3736,-4.3741,0,0,0,0,0,0,-4.3181,-4.3199,-4.3339,-4.3269,-4.3285,-4.328,-4.3325,-4.3321,-4.3345,-4.3348,-4.3346,-4.3325,-4.3355,-4.3367,-4.3465,-4.3535,-4.3398,-4.3404,-4.3724,-4.3732,-4.3739,-4.3851,0,0,0,0,0,0,-4.3176,-4.3198,-4.325,-4.3271,-4.3289,-4.3428,-4.3329,-4.3326,-4.3358,-4.3348,-4.3372,-4.3371,-4.3352,-4.3456,-4.3472,-4.3542,-4.3409,-4.3718,-4.3728,-4.3736,-4.3841,-4.3861,-4.3879,0,0,0,0,0,-4.3169,-4.3279,-4.3253,-4.3271,-4.3355,-4.3432,-4.3442,-4.3419,-4.3364,-4.3415,-4.3416,-4.3371,-4.3525,-4.3467,-4.3484,-4.3557,-4.3713,-4.3725,-4.3736,-4.3832,-4.3857,-4.3878,0,0,0,0,0,0,-4.3267,-4.3282,-4.3253,-4.3374,-4.3403,-4.3417,-4.3482,-4.3447,-4.3491,-4.3479,-4.3448,-4.3454,-4.3558,-4.3568,-4.3502,-4.3687,-4.361,-4.3625,-4.3677,-4.3701,-4.3719,-4.3714,-4.3415,0,0,0,0,0,-4.3303,-4.3366,-4.3375,-4.3481,-4.3496,-4.3487,-4.352,-4.35,-4.3527,-4.3539,-4.3547,-4.3575,-4.3629,-4.3666,-4.3716,-4.3842,-4.3845,-4.3901,-4.392,-4.3935,-4.3948,-4.4012,-4.4036,-4.3778,-4.3778,-4.3778,0,0,-4.3377,-4.3393,-4.3435,-4.3501,-4.352,-4.3584,-4.3498,-4.357,-4.3616,-4.3549,-4.3642,-4.3649,-4.3678,-4.379,-4.384,-4.3801,-4.402,-4.395,-4.3962,-4.3966,-4.4026,-4.4051,-4.4072,-4.3786,-4.3784,-4.3783,0,0,-4.3545,-4.3565,-4.3654,-4.3675,-4.3706,-4.3699,-4.372,-4.3741,-4.3743,-4.3835,-4.3786,-4.384,-4.3935,-4.3957,-4.3981,-4.4155,-4.4113,-4.4172,-4.427,-4.4333,-4.4353,-4.4371,-4.443,-4.4452,-4.4186,-4.4186,-4.4186,0,-4.3633,-4.3729,-4.3703,-4.3779,-4.3808,-4.3751,-4.3839,-4.3861,-4.3907,-4.3927,-4.3883,-4.4,-4.4016,-4.413,-4.4173,-4.4195,-4.4216,-4.4169,-4.4353,-4.437,-4.4386,-4.4443,-4.4465,-4.4193,-4.4192,-4.4191,-4.4191,0,-4.3834,-4.3902,-4.3969,-4.4015,-4.4052,-4.4134,-4.4118,-4.4159,-4.4135,-4.4131,-4.4225,-4.4242,-4.4293,-4.4319,-4.4297,-4.4431,-4.4405,-4.4358,-4.4279,-4.4418,-4.447,-4.4492,-4.4202,-4.42,-4.4198,-4.4196,0,0,-4.4066,-4.4095,-4.412,-4.4139,-4.4168,-4.4219,-4.4297,-4.4348,-4.4381,-4.4415,-4.4477,-4.4559,-4.4514,-4.4541,-4.4521,-4.4576,-4.4709,-4.4521,-4.4522,-4.4553,-4.4854,-4.4887,-4.4913,-4.4683,-4.4687,-4.469,-4.485,0,-4.4231,-4.4366,-4.4344,-4.4474,-4.4534,-4.448,-4.4547,-4.4572,-4.4571,-4.462,-4.4618,-4.4675,-4.4614,-4.463,-4.4683,-4.4682,-4.4769,-4.4671,-4.4738,-4.4741,-4.473,-4.494,-4.4977,-4.5127,-4.4871,-4.4874,-4.4877,0,-4.4442,-4.4483,-4.4619,-4.4636,-4.4661,-4.4722,-4.4765,-4.4814,-4.4839,-4.4834,-4.4864,-4.4833,-4.4908,-4.4829,-4.4931,-4.4865,-4.4891,-4.4895,-4.49,-4.4903,-4.4816,-4.4947,-4.5175,-4.5196,-4.4909,-4.4907,-4.4904,0,-4.4593,-4.4682,-4.4774,-4.4792,-4.4816,-4.486,-4.4872,-4.4893,-4.4924,-4.4962,-4.4981,-4.5027,-4.5052,-4.5087,-4.5068,-4.5013,-4.5172,-4.5093,-4.5168,-4.5169,-4.5202,-4.52,-4.5435,-4.5224,-4.5224,-4.5223,-4.5223,0,-4.4779,-4.4863,-4.4842,-4.4899,-4.4991,-4.4965,-4.5056,-4.5061,-4.508,-4.5135,-4.5092,-4.5144,-4.5117,-4.5166,-4.5152,-4.5237,-4.5249,-4.5245,-4.524,-4.5248,-4.5248,-4.5263,-4.5251,-4.5229,-4.5228,-4.5227,-4.5226,0,-4.4962,-4.4952,-4.5048,-4.5063,-4.5068,-4.5135,-4.5146,-4.5198,-4.5194,-4.5263,-4.5278,-4.5271,-4.5327,-4.5312,-4.5373,-4.5363,-4.5469,-4.5452,-4.546,-4.5455,-4.553,-4.5522,-4.578,-4.5812,-4.5583,-4.5586,-4.5588,0,-4.508,-4.5144,-4.5165,-4.5199,-4.5214,-4.5269,-4.53,-4.5276,-4.531,-4.5343,-4.539,-4.5443,-4.5483,-4.5575,-4.5573,-4.5619,-4.5601,-4.5688,-4.5607,-4.5612,-4.5598,-4.5594,-4.5599,-4.5704,-4.5706,-4.5708,-4.571,0,-4.5289,-4.528,-4.5328,-4.5373,-4.5412,-4.5446,-4.5476,-4.5506,-4.5484,-4.5524,-4.5581,-4.5612,-4.5674,-4.5725,-4.5767,-4.5777,-4.5739,-4.5736,-4.5755,-4.5762,-4.5763,-4.5761,-4.5501,-4.573,-4.5728,-4.5726,-4.5725,-4.5724,-4.5441,-4.5494,-4.5517,-4.557,-4.559,-4.5619,-4.5667,-4.5668,-4.5716,-4.5764,-4.5747,-4.5811,-4.5833,-4.5885,-4.59,-4.5949,-4.5915,-4.5944,-4.5951,-4.5957,-4.5965,-4.5758,-4.5957,-4.5956,-4.5955,-4.5955,-4.5955,0,-4.5646,-4.5657,-4.5707,-4.575,-4.5791,-4.5753,-4.5784,-4.5821,-4.5878,-4.5902,-4.5942,-4.6006,-4.6055,-4.6058,-4.6103,-4.6142,-4.6125,-4.6154,-4.6149,-4.6152,-4.5994,-4.5972,-4.6166,-4.6166,-4.6166,-4.6166,-4.6166,-4.6166,-4.5756,-4.5843,-4.5837,-4.5932,-4.5942,-4.6005,-4.6026,-4.6051,-4.6069,-4.6143,-4.6183,-4.6185,-4.62,-4.6246,-4.6288,-4.6287,-4.6305,-4.634,-4.6332,-4.6184,-4.6163,-4.6143,-4.6122,-4.6345,-4.6345,-4.6485,-4.6487,-4.6488]},{"header":{"parameterUnit":"m.s-1","parameterCategory":1,"la1":30.2991,"la2":30.254,"lo1":-89.0895,"lo2":-89.0444,"dx":0.0017,"dy":0.0017,"nx":28,"ny":28,"refTime":"2023-01-14T03:00:00:Z","depth":0,"parameterNumber":3,"parameterNumberName":"V-component_of_WINDS"},"data":[0,0,0,0,0,0,0,0,0,0,0,0,0,0,0,0,0,0,0,0,0,0,0,0,0,0,0,0,0,0,0,0,0,0,0,0,0,0,0,0,0,0,0,0,0,0,0,0,0,0,0,0,0,0,0,0,0,0,-0.9854,-0.9855,0,-0.9924,-0.9924,-0.9925,-0.9953,-0.9952,-0.9952,-0.9952,-1.0024,-1.0026,-1.0028,0,0,0,0,0,0,0,0,0,0,0,0,0,-0.9745,-0.9747,-0.9854,-0.9855,-0.9856,-0.9923,-0.9924,-0.9925,-0.9953,-0.9952,-0.9952,-0.9952,-1.0023,-1.0026,-1.0028,0,0,0,0,0,0,0,0,0,0,0,0,0,-0.9801,-0.9748,-0.9854,-0.9878,-0.988,-0.9923,-0.9924,-0.9926,-0.9953,-0.9952,-0.9952,-0.9952,-1.0022,-1.0025,-1.0028,-1.0053,0,0,-1.0038,-1.0039,0,0,0,0,0,0,0,0,-0.9798,-0.9805,-0.9873,-0.9876,-0.9879,-0.9929,-0.9912,-0.9968,-0.9953,-0.9925,-0.9952,-0.9952,-0.9993,-0.9998,-1.0012,-1.0056,-1.0059,-1.0038,-1.004,-1.0041,-1.0042,0,0,0,0,0,0,0,-0.9794,-0.9802,-0.9882,-0.9874,-0.9878,-0.9885,-0.9892,-0.9923,-0.996,-0.9928,-0.993,-0.9938,-0.9994,-1.0009,-1.0014,-1.0061,-1.0038,-1.0041,-1.0043,-1.0044,-1.0128,-1.0128,0,0,0,0,0,0,-0.9786,-0.9799,-0.9879,-0.9884,-0.9837,-0.9887,-0.9895,-0.9913,-0.9959,-0.9966,-0.9938,-0.9939,-1.0003,-1.001,-1.0016,-1.0047,-1.0041,-1.0044,-1.0046,-1.0127,-1.0128,-1.0128,0,0,0,0,0,0,-0.9784,-0.9793,-0.9877,-0.9842,-0.9853,-0.9889,-0.9909,-0.9915,-0.9929,-0.9967,-0.9974,-0.9946,-1.0003,-1.0012,-1.0043,-1.005,-1.0046,-1.0049,-1.0127,-1.0128,-1.0128,-1.011,0,0,0,0,0,0,-0.9781,-0.9792,-0.9802,-0.9842,-0.9855,-0.9903,-0.9909,-0.9916,-0.9935,-0.9936,-0.9976,-0.9983,-1.0004,-1.0039,-1.0046,-1.0055,-1.0051,-1.0127,-1.0127,-1.0128,-1.0111,-1.011,-1.011,0,0,0,0,0,-0.9777,-0.9795,-0.9802,-0.9812,-0.9868,-0.9903,-0.991,-0.9934,-0.9935,-0.9945,-0.9969,-0.9981,-1.0048,-1.0042,-1.0051,-1.006,-1.0126,-1.0127,-1.0128,-1.0111,-1.011,-1.011,0,0,0,0,0,0,-0.9755,-0.98,-0.981,-0.9841,-0.9868,-0.9908,-0.9921,-0.9933,-0.9961,-0.9961,-0.999,-0.9999,-1.0028,-1.0047,-1.0039,-1.0085,-1.0088,-1.0091,-1.0072,-1.0072,-1.0072,-1.0066,-1.0054,0,0,0,0,0,-0.9754,-0.9779,-0.9817,-0.9841,-0.9854,-0.9885,-0.9901,-0.9917,-0.9946,-0.9958,-0.9984,-1.0012,-1.0039,-1.0057,-1.0084,-1.0113,-1.0122,-1.0124,-1.0124,-1.0123,-1.0125,-1.0141,-1.0143,-1.0131,-1.0131,-1.0131,0,0,-0.9752,-0.978,-0.9794,-0.9838,-0.986,-0.9885,-0.9895,-0.9921,-0.9939,-0.9962,-0.9993,-1.0013,-1.0046,-1.0076,-1.0091,-1.0093,-1.013,-1.0124,-1.0124,-1.0126,-1.0142,-1.0143,-1.0144,-1.0131,-1.0131,-1.0131,0,0,-0.9762,-0.9785,-0.9808,-0.983,-0.9864,-0.9884,-0.9889,-0.9927,-0.9941,-0.9972,-0.999,-1.0012,-1.0058,-1.0081,-1.0098,-1.0114,-1.0127,-1.0122,-1.0121,-1.0137,-1.0138,-1.0138,-1.0144,-1.0145,-1.0124,-1.0124,-1.0124,0,-0.9755,-0.9793,-0.9818,-0.9842,-0.9861,-0.9882,-0.9904,-0.9925,-0.9966,-0.9978,-0.998,-1.0037,-1.0061,-1.0097,-1.01,-1.0114,-1.012,-1.0118,-1.0135,-1.0137,-1.0138,-1.0143,-1.0145,-1.0123,-1.0124,-1.0124,-1.0124,0,-0.9783,-0.9809,-0.9823,-0.9861,-0.9881,-0.9905,-0.9932,-0.9949,-0.9963,-0.9983,-1.0014,-1.0043,-1.0076,-1.0086,-1.01,-1.0123,-1.0123,-1.013,-1.0133,-1.0138,-1.0143,-1.0146,-1.0122,-1.0123,-1.0123,-1.0123,0,0,-0.9782,-0.9832,-0.9837,-0.9854,-0.9893,-0.9913,-0.9937,-0.9969,-0.9983,-1.001,-1.003,-1.0069,-1.0075,-1.0094,-1.0111,-1.0124,-1.0134,-1.0129,-1.0131,-1.0129,-1.0161,-1.0155,-1.0157,-1.0142,-1.0143,-1.0143,-1.0158,0,-0.9796,-0.984,-0.9862,-0.9896,-0.992,-0.9939,-0.996,-0.9986,-1.0005,-1.0027,-1.0049,-1.0075,-1.0081,-1.0093,-1.0107,-1.013,-1.0141,-1.0129,-1.0162,-1.0163,-1.0153,-1.016,-1.0155,-1.0168,-1.016,-1.0161,-1.0161,0,-0.9818,-0.9845,-0.9881,-0.9915,-0.9926,-0.9945,-0.9975,-0.9996,-1.0025,-1.0038,-1.0059,-1.0076,-1.0101,-1.0102,-1.0138,-1.0129,-1.0143,-1.0157,-1.0158,-1.0162,-1.0162,-1.0165,-1.0172,-1.0174,-1.0165,-1.0164,-1.0164,0,-0.9813,-0.9857,-0.9885,-0.9899,-0.994,-0.9952,-0.997,-0.9999,-1.0016,-1.0042,-1.0054,-1.0083,-1.0099,-1.0121,-1.0144,-1.0143,-1.0177,-1.018,-1.0188,-1.0188,-1.0195,-1.0194,-1.0205,-1.0204,-1.0204,-1.0204,-1.0204,0,-0.9826,-0.9847,-0.9883,-0.9899,-0.9924,-0.9949,-0.9972,-0.9991,-1.0016,-1.0037,-1.0056,-1.0075,-1.0104,-1.0127,-1.0145,-1.0172,-1.0179,-1.019,-1.0194,-1.0188,-1.0187,-1.0198,-1.0198,-1.0205,-1.0205,-1.0205,-1.0204,0,-0.9824,-0.9849,-0.988,-0.9916,-0.9925,-0.9941,-0.9972,-0.9989,-1.0008,-1.0034,-1.0042,-1.0072,-1.01,-1.0125,-1.0162,-1.0174,-1.0201,-1.0207,-1.0191,-1.0193,-1.02,-1.0199,-1.0218,-1.0222,-1.0219,-1.0219,-1.0219,0,-0.9831,-0.9848,-0.9885,-0.99,-0.9917,-0.9941,-0.9959,-0.9984,-1.0001,-1.0035,-1.0047,-1.0076,-1.01,-1.0143,-1.0169,-1.0197,-1.0203,-1.0208,-1.0208,-1.0201,-1.0203,-1.0202,-1.0203,-1.0208,-1.0208,-1.0208,-1.0208,0,-0.984,-0.9851,-0.9876,-0.9904,-0.9924,-0.9948,-0.9972,-0.9983,-1.0012,-1.0031,-1.0059,-1.0077,-1.0114,-1.0142,-1.0173,-1.0191,-1.0204,-1.0208,-1.0211,-1.0205,-1.0195,-1.02,-1.0189,-1.0207,-1.0207,-1.0207,-1.0207,-1.0207,-0.9843,-0.9859,-0.9887,-0.9913,-0.9934,-0.9955,-0.9973,-0.9994,-1.0018,-1.0049,-1.0063,-1.0091,-1.0119,-1.0161,-1.0179,-1.0201,-1.0204,-1.0209,-1.021,-1.0211,-1.021,-1.0191,-1.0207,-1.0207,-1.0207,-1.0207,-1.0207,0,-0.9853,-0.9872,-0.9896,-0.9928,-0.9949,-0.9959,-0.9986,-1.0002,-1.0027,-1.0051,-1.0074,-1.0106,-1.0133,-1.016,-1.0189,-1.0202,-1.0208,-1.0208,-1.0208,-1.0211,-1.0206,-1.02,-1.0202,-1.0202,-1.0202,-1.0202,-1.0202,-1.0202,-0.986,-0.9887,-0.9901,-0.9938,-0.9957,-0.9984,-0.9998,-1.0018,-1.0038,-1.0073,-1.0095,-1.0112,-1.0138,-1.0168,-1.0193,-1.0201,-1.021,-1.0209,-1.0218,-1.0212,-1.0212,-1.0212,-1.0207,-1.0211,-1.0211,-1.0221,-1.0222,-1.0222]}]]